owner,sensor,date,latitude,longitude,vertical_datum,wind_speed,wind_to_direction,wind_speed_of_gust,qcFlag 
ADCP,ioos:station:wmo:42364:1,2013-12-01T00:30:00Z,29.0600,-88.0900,122.0,99.0,-9999.0,99.0,'11144222,99999999,11144222' 
ADCP,ioos:station:wmo:42364:1,2013-12-01T01:30:00Z,29.0600,-88.0900,122.0,99.0,-9999.0,99.0,'11144222,99999999,11144222' 
ADCP,ioos:station:wmo:42364:1,2013-12-01T02:30:00Z,29.0600,-88.0900,122.0,99.0,-9999.0,99.0,'11144222,99999999,11144222' 
ADCP,ioos:station:wmo:42364:1,2013-12-01T03:30:00Z,29.0600,-88.0900,122.0,99.0,-9999.0,99.0,'11144222,99999999,11144222' 
ADCP,ioos:station:wmo:42364:1,2013-12-01T04:30:00Z,29.0600,-88.0900,122.0,99.0,-9999.0,99.0,'11144222,99999999,11144222' 
ADCP,ioos:station:wmo:42364:1,2013-12-01T05:30:00Z,29.0600,-88.0900,122.0,99.0,-9999.0,99.0,'11144222,99999999,11144222' 
ADCP,ioos:station:wmo:42364:1,2013-12-01T06:30:00Z,29.0600,-88.0900,122.0,99.0,-9999.0,99.0,'11144222,99999999,11144222' 
ADCP,ioos:station:wmo:42364:1,2013-12-01T07:30:00Z,29.0600,-88.0900,122.0,99.0,-9999.0,99.0,'11144222,99999999,11144222' 
ADCP,ioos:station:wmo:42364:1,2013-12-01T08:30:00Z,29.0600,-88.0900,122.0,99.0,-9999.0,99.0,'11144222,99999999,11144222' 
ADCP,ioos:station:wmo:42364:1,2013-12-01T09:30:00Z,29.0600,-88.0900,122.0,99.0,-9999.0,99.0,'11144222,99999999,11144222' 
ADCP,ioos:station:wmo:42364:1,2013-12-01T10:30:00Z,29.0600,-88.0900,122.0,99.0,-9999.0,99.0,'11144222,99999999,11144222' 
ADCP,ioos:station:wmo:42364:1,2013-12-01T11:30:00Z,29.0600,-88.0900,122.0,99.0,-9999.0,99.0,'11144222,99999999,11144222' 
ADCP,ioos:station:wmo:42364:1,2013-12-01T12:30:00Z,29.0600,-88.0900,122.0,99.0,-9999.0,99.0,'11144222,99999999,11144222' 
ADCP,ioos:station:wmo:42364:1,2013-12-01T13:30:00Z,29.0600,-88.0900,122.0,99.0,-9999.0,99.0,'11144222,99999999,11144222' 
ADCP,ioos:station:wmo:42364:1,2013-12-01T14:30:00Z,29.0600,-88.0900,122.0,99.0,-9999.0,99.0,'11144222,99999999,11144222' 
ADCP,ioos:station:wmo:42364:1,2013-12-01T15:30:00Z,29.0600,-88.0900,122.0,99.0,-9999.0,99.0,'11144222,99999999,11144222' 
ADCP,ioos:station:wmo:42364:1,2013-12-01T16:30:00Z,29.0600,-88.0900,122.0,99.0,-9999.0,99.0,'11144222,99999999,11144222' 
ADCP,ioos:station:wmo:42364:1,2013-12-01T17:30:00Z,29.0600,-88.0900,122.0,99.0,-9999.0,99.0,'11144222,99999999,11144222' 
ADCP,ioos:station:wmo:42364:1,2013-12-01T18:30:00Z,29.0600,-88.0900,122.0,99.0,-9999.0,99.0,'11144222,99999999,11144222' 
ADCP,ioos:station:wmo:42364:1,2013-12-01T19:30:00Z,29.0600,-88.0900,122.0,99.0,-9999.0,99.0,'11144222,99999999,11144222' 
ADCP,ioos:station:wmo:42364:1,2013-12-01T20:30:00Z,29.0600,-88.0900,122.0,99.0,-9999.0,99.0,'11144222,99999999,11144222' 
ADCP,ioos:station:wmo:42364:1,2013-12-01T21:30:00Z,29.0600,-88.0900,122.0,99.0,-9999.0,99.0,'11144222,99999999,11144222' 
ADCP,ioos:station:wmo:42364:1,2013-12-01T22:30:00Z,29.0600,-88.0900,122.0,99.0,-9999.0,99.0,'11144222,99999999,11144222' 
ADCP,ioos:station:wmo:42364:1,2013-12-01T23:30:00Z,29.0600,-88.0900,122.0,99.0,-9999.0,99.0,'11144222,99999999,11144222' 
ADCP,ioos:station:wmo:42364:1,2013-12-02T00:30:00Z,29.0600,-88.0900,122.0,99.0,-9999.0,99.0,'11144222,99999999,11144222' 
ADCP,ioos:station:wmo:42364:1,2013-12-02T01:30:00Z,29.0600,-88.0900,122.0,99.0,-9999.0,99.0,'11144222,99999999,11144222' 
ADCP,ioos:station:wmo:42364:1,2013-12-02T02:30:00Z,29.0600,-88.0900,122.0,99.0,-9999.0,99.0,'11144222,99999999,11144222' 
ADCP,ioos:station:wmo:42364:1,2013-12-02T03:30:00Z,29.0600,-88.0900,122.0,99.0,-9999.0,99.0,'11144222,99999999,11144222' 
ADCP,ioos:station:wmo:42364:1,2013-12-02T04:30:00Z,29.0600,-88.0900,122.0,99.0,-9999.0,99.0,'11144222,99999999,11144222' 
ADCP,ioos:station:wmo:42364:1,2013-12-02T05:30:00Z,29.0600,-88.0900,122.0,99.0,-9999.0,99.0,'11144222,99999999,11144222' 
ADCP,ioos:station:wmo:42364:1,2013-12-02T06:30:00Z,29.0600,-88.0900,122.0,99.0,-9999.0,99.0,'11144222,99999999,11144222' 
ADCP,ioos:station:wmo:42364:1,2013-12-02T07:30:00Z,29.0600,-88.0900,122.0,99.0,-9999.0,99.0,'11144222,99999999,11144222' 
ADCP,ioos:station:wmo:42364:1,2013-12-02T08:30:00Z,29.0600,-88.0900,122.0,99.0,-9999.0,99.0,'11144222,99999999,11144222' 
ADCP,ioos:station:wmo:42364:1,2013-12-02T09:30:00Z,29.0600,-88.0900,122.0,99.0,-9999.0,99.0,'11144222,99999999,11144222' 
ADCP,ioos:station:wmo:42364:1,2013-12-02T10:30:00Z,29.0600,-88.0900,122.0,99.0,-9999.0,99.0,'11144222,99999999,11144222' 
ADCP,ioos:station:wmo:42364:1,2013-12-02T11:30:00Z,29.0600,-88.0900,122.0,99.0,-9999.0,99.0,'11144222,99999999,11144222' 
ADCP,ioos:station:wmo:42364:1,2013-12-02T12:30:00Z,29.0600,-88.0900,122.0,99.0,-9999.0,99.0,'11144222,99999999,11144222' 
ADCP,ioos:station:wmo:42364:1,2013-12-02T13:30:00Z,29.0600,-88.0900,122.0,99.0,-9999.0,99.0,'11144222,99999999,11144222' 
ADCP,ioos:station:wmo:42364:1,2013-12-02T14:30:00Z,29.0600,-88.0900,122.0,99.0,-9999.0,99.0,'11144222,99999999,11144222' 
ADCP,ioos:station:wmo:42364:1,2013-12-02T15:30:00Z,29.0600,-88.0900,122.0,99.0,-9999.0,99.0,'11144222,99999999,11144222' 
ADCP,ioos:station:wmo:42364:1,2013-12-02T16:30:00Z,29.0600,-88.0900,122.0,99.0,-9999.0,99.0,'11144222,99999999,11144222' 
ADCP,ioos:station:wmo:42364:1,2013-12-02T17:30:00Z,29.0600,-88.0900,122.0,99.0,-9999.0,99.0,'11144222,99999999,11144222' 
ADCP,ioos:station:wmo:42364:1,2013-12-02T18:30:00Z,29.0600,-88.0900,122.0,99.0,-9999.0,99.0,'11144222,99999999,11144222' 
ADCP,ioos:station:wmo:42364:1,2013-12-02T19:30:00Z,29.0600,-88.0900,122.0,99.0,-9999.0,99.0,'11144222,99999999,11144222' 
ADCP,ioos:station:wmo:42364:1,2013-12-02T20:30:00Z,29.0600,-88.0900,122.0,99.0,-9999.0,99.0,'11144222,99999999,11144222' 
ADCP,ioos:station:wmo:42364:1,2013-12-03T15:30:00Z,29.0600,-88.0900,122.0,6.5,190.0,99.0,'11111222,11111222,11144222' 
ADCP,ioos:station:wmo:42364:1,2013-12-03T16:30:00Z,29.0600,-88.0900,122.0,4.6,190.0,99.0,'11111222,11111222,11144222' 
ADCP,ioos:station:wmo:42364:1,2013-12-03T17:30:00Z,29.0600,-88.0900,122.0,5.5,189.0,99.0,'11111222,11111222,11144222' 
ADCP,ioos:station:wmo:42364:1,2013-12-03T18:30:00Z,29.0600,-88.0900,122.0,8.3,189.0,99.0,'11111222,11111222,11144222' 
ADCP,ioos:station:wmo:42364:1,2013-12-03T19:30:00Z,29.0600,-88.0900,122.0,8.8,189.0,99.0,'11111222,11111222,11144222' 
ADCP,ioos:station:wmo:42364:1,2013-12-03T20:30:00Z,29.0600,-88.0900,122.0,8.5,190.0,99.0,'11111222,11111222,11144222' 
ADCP,ioos:station:wmo:42364:1,2013-12-03T21:30:00Z,29.0600,-88.0900,122.0,8.8,190.0,99.0,'11111222,11111222,11144222' 
ADCP,ioos:station:wmo:42364:1,2013-12-03T22:30:00Z,29.0600,-88.0900,122.0,8.1,189.0,99.0,'11111222,11111222,11144222' 
ADCP,ioos:station:wmo:42364:1,2013-12-03T23:30:00Z,29.0600,-88.0900,122.0,8.7,190.0,99.0,'11111222,11111222,11144222' 
ADCP,ioos:station:wmo:42364:1,2013-12-04T00:30:00Z,29.0600,-88.0900,122.0,8.4,190.0,99.0,'11111222,11111222,11144222' 
ADCP,ioos:station:wmo:42364:1,2013-12-04T01:30:00Z,29.0600,-88.0900,122.0,8.4,190.0,99.0,'11111222,11111222,11144222' 
ADCP,ioos:station:wmo:42364:1,2013-12-04T03:30:00Z,29.0600,-88.0900,122.0,10.7,179.0,99.0,'11111222,11111222,11144222' 
ADCP,ioos:station:wmo:42364:1,2013-12-04T04:30:00Z,29.0600,-88.0900,122.0,10.2,178.0,99.0,'11111222,11111222,11144222' 
ADCP,ioos:station:wmo:42364:1,2013-12-04T05:30:00Z,29.0600,-88.0900,122.0,10.0,176.0,99.0,'11111222,11111222,11144222' 
ADCP,ioos:station:wmo:42364:1,2013-12-04T06:30:00Z,29.0600,-88.0900,122.0,10.5,178.0,99.0,'11111222,11111222,11144222' 
ADCP,ioos:station:wmo:42364:1,2013-12-04T07:30:00Z,29.0600,-88.0900,122.0,10.3,180.0,99.0,'11111222,11111222,11144222' 
ADCP,ioos:station:wmo:42364:1,2013-12-04T08:30:00Z,29.0600,-88.0900,122.0,9.8,180.0,99.0,'11111222,11111222,11144222' 
ADCP,ioos:station:wmo:42364:1,2013-12-04T09:30:00Z,29.0600,-88.0900,122.0,9.8,180.0,99.0,'11111222,11111222,11144222' 
ADCP,ioos:station:wmo:42364:1,2013-12-04T10:30:00Z,29.0600,-88.0900,122.0,9.6,180.0,99.0,'11111222,11111222,11144222' 
ADCP,ioos:station:wmo:42364:1,2013-12-04T11:30:00Z,29.0600,-88.0900,122.0,8.0,171.0,99.0,'11111222,11111222,11144222' 
ADCP,ioos:station:wmo:42364:1,2013-12-04T12:30:00Z,29.0600,-88.0900,122.0,8.9,170.0,99.0,'11111222,11111222,11144222' 
ADCP,ioos:station:wmo:42364:1,2013-12-04T13:30:00Z,29.0600,-88.0900,122.0,10.4,170.0,99.0,'11111222,11111222,11144222' 
ADCP,ioos:station:wmo:42364:1,2013-12-04T14:30:00Z,29.0600,-88.0900,122.0,10.3,170.0,99.0,'11111222,11111222,11144222' 
ADCP,ioos:station:wmo:42364:1,2013-12-04T15:30:00Z,29.0600,-88.0900,122.0,9.2,168.0,99.0,'11111222,11111222,11144222' 
ADCP,ioos:station:wmo:42364:1,2013-12-04T16:30:00Z,29.0600,-88.0900,122.0,7.9,164.0,99.0,'11111222,11111222,11144222' 
ADCP,ioos:station:wmo:42364:1,2013-12-04T17:30:00Z,29.0600,-88.0900,122.0,7.3,159.0,99.0,'11111222,11111222,11144222' 
ADCP,ioos:station:wmo:42364:1,2013-12-04T18:30:00Z,29.0600,-88.0900,122.0,7.1,142.0,99.0,'11111222,11111222,11144222' 
ADCP,ioos:station:wmo:42364:1,2013-12-04T19:30:00Z,29.0600,-88.0900,122.0,8.2,163.0,99.0,'11111222,11111222,11144222' 
ADCP,ioos:station:wmo:42364:1,2013-12-04T20:30:00Z,29.0600,-88.0900,122.0,7.4,164.0,99.0,'11111222,11111222,11144222' 
ADCP,ioos:station:wmo:42364:1,2013-12-04T21:30:00Z,29.0600,-88.0900,122.0,10.2,153.0,99.0,'11111222,11111222,11144222' 
ADCP,ioos:station:wmo:42364:1,2013-12-04T22:30:00Z,29.0600,-88.0900,122.0,10.3,169.0,99.0,'11111222,11111222,11144222' 
ADCP,ioos:station:wmo:42364:1,2013-12-04T23:30:00Z,29.0600,-88.0900,122.0,10.8,171.0,99.0,'11111222,11111222,11144222' 
ADCP,ioos:station:wmo:42364:1,2013-12-05T00:30:00Z,29.0600,-88.0900,122.0,11.3,171.0,99.0,'11111222,11111222,11144222' 
ADCP,ioos:station:wmo:42364:1,2013-12-05T01:30:00Z,29.0600,-88.0900,122.0,10.3,170.0,99.0,'11111222,11111222,11144222' 
ADCP,ioos:station:wmo:42364:1,2013-12-05T02:30:00Z,29.0600,-88.0900,122.0,9.7,170.0,99.0,'11111222,11111222,11144222' 
ADCP,ioos:station:wmo:42364:1,2013-12-05T03:30:00Z,29.0600,-88.0900,122.0,9.8,164.0,99.0,'11111222,11111222,11144222' 
ADCP,ioos:station:wmo:42364:1,2013-12-05T04:30:00Z,29.0600,-88.0900,122.0,9.4,160.0,99.0,'11111222,11111222,11144222' 
ADCP,ioos:station:wmo:42364:1,2013-12-05T05:30:00Z,29.0600,-88.0900,122.0,10.2,160.0,99.0,'11111222,11111222,11144222' 
ADCP,ioos:station:wmo:42364:1,2013-12-05T06:30:00Z,29.0600,-88.0900,122.0,9.9,159.0,99.0,'11111222,11111222,11144222' 
ADCP,ioos:station:wmo:42364:1,2013-12-05T07:30:00Z,29.0600,-88.0900,122.0,9.5,153.0,99.0,'11111222,11111222,11144222' 
ADCP,ioos:station:wmo:42364:1,2013-12-05T08:30:00Z,29.0600,-88.0900,122.0,8.3,151.0,99.0,'11111222,11111222,11144222' 
ADCP,ioos:station:wmo:42364:1,2013-12-05T09:30:00Z,29.0600,-88.0900,122.0,8.3,150.0,99.0,'11111222,11111222,11144222' 
ADCP,ioos:station:wmo:42364:1,2013-12-05T10:30:00Z,29.0600,-88.0900,122.0,8.9,143.0,99.0,'11111222,11111222,11144222' 
ADCP,ioos:station:wmo:42364:1,2013-12-05T11:30:00Z,29.0600,-88.0900,122.0,9.8,140.0,99.0,'11111222,11111222,11144222' 
ADCP,ioos:station:wmo:42364:1,2013-12-05T12:30:00Z,29.0600,-88.0900,122.0,9.9,140.0,99.0,'11111222,11111222,11144222' 
ADCP,ioos:station:wmo:42364:1,2013-12-05T13:30:00Z,29.0600,-88.0900,122.0,8.9,140.0,99.0,'11111222,11111222,11144222' 
ADCP,ioos:station:wmo:42364:1,2013-12-05T14:30:00Z,29.0600,-88.0900,122.0,8.0,140.0,99.0,'11111222,11111222,11144222' 
ADCP,ioos:station:wmo:42364:1,2013-12-05T15:30:00Z,29.0600,-88.0900,122.0,9.3,140.0,99.0,'11111222,11111222,11144222' 
ADCP,ioos:station:wmo:42364:1,2013-12-05T16:30:00Z,29.0600,-88.0900,122.0,10.9,140.0,99.0,'11111222,11111222,11144222' 
ADCP,ioos:station:wmo:42364:1,2013-12-05T17:30:00Z,29.0600,-88.0900,122.0,10.9,140.0,99.0,'11111222,11111222,11144222' 
ADCP,ioos:station:wmo:42364:1,2013-12-05T18:30:00Z,29.0600,-88.0900,122.0,10.2,146.0,99.0,'11111222,11111222,11144222' 
ADCP,ioos:station:wmo:42364:1,2013-12-05T19:30:00Z,29.0600,-88.0900,122.0,10.1,150.0,99.0,'11111222,11111222,11144222' 
ADCP,ioos:station:wmo:42364:1,2013-12-05T20:30:00Z,29.0600,-88.0900,122.0,8.8,150.0,99.0,'11111222,11111222,11144222' 
ADCP,ioos:station:wmo:42364:1,2013-12-05T21:30:00Z,29.0600,-88.0900,122.0,9.5,148.0,99.0,'11111222,11111222,11144222' 
ADCP,ioos:station:wmo:42364:1,2013-12-05T22:30:00Z,29.0600,-88.0900,122.0,9.7,146.0,99.0,'11111222,11111222,11144222' 
ADCP,ioos:station:wmo:42364:1,2013-12-05T23:30:00Z,29.0600,-88.0900,122.0,10.5,140.0,99.0,'11111222,11111222,11144222' 
ADCP,ioos:station:wmo:42364:1,2013-12-06T00:30:00Z,29.0600,-88.0900,122.0,10.4,140.0,99.0,'11111222,11111222,11144222' 
ADCP,ioos:station:wmo:42364:1,2013-12-06T01:30:00Z,29.0600,-88.0900,122.0,9.6,140.0,99.0,'11111222,11111222,11144222' 
ADCP,ioos:station:wmo:42364:1,2013-12-06T02:30:00Z,29.0600,-88.0900,122.0,10.3,140.0,99.0,'11111222,11111222,11144222' 
ADCP,ioos:station:wmo:42364:1,2013-12-06T03:30:00Z,29.0600,-88.0900,122.0,10.2,140.0,99.0,'11111222,11111222,11144222' 
ADCP,ioos:station:wmo:42364:1,2013-12-06T04:30:00Z,29.0600,-88.0900,122.0,10.5,143.0,99.0,'11111222,11111222,11144222' 
ADCP,ioos:station:wmo:42364:1,2013-12-06T05:30:00Z,29.0600,-88.0900,122.0,9.5,151.0,99.0,'11111222,11111222,11144222' 
ADCP,ioos:station:wmo:42364:1,2013-12-06T06:30:00Z,29.0600,-88.0900,122.0,8.4,152.0,99.0,'11111222,11111222,11144222' 
ADCP,ioos:station:wmo:42364:1,2013-12-06T07:30:00Z,29.0600,-88.0900,122.0,7.7,159.0,99.0,'11111222,11111222,11144222' 
ADCP,ioos:station:wmo:42364:1,2013-12-06T08:30:00Z,29.0600,-88.0900,122.0,8.6,150.0,99.0,'11111222,11111222,11144222' 
ADCP,ioos:station:wmo:42364:1,2013-12-06T09:30:00Z,29.0600,-88.0900,122.0,9.4,150.0,99.0,'11111222,11111222,11144222' 
ADCP,ioos:station:wmo:42364:1,2013-12-06T10:30:00Z,29.0600,-88.0900,122.0,10.1,148.0,99.0,'11111222,11111222,11144222' 
ADCP,ioos:station:wmo:42364:1,2013-12-06T11:30:00Z,29.0600,-88.0900,122.0,9.9,150.0,99.0,'11111222,11111222,11144222' 
ADCP,ioos:station:wmo:42364:1,2013-12-06T12:30:00Z,29.0600,-88.0900,122.0,10.0,150.0,99.0,'11111222,11111222,11144222' 
ADCP,ioos:station:wmo:42364:1,2013-12-06T13:30:00Z,29.0600,-88.0900,122.0,9.9,150.0,99.0,'11111222,11111222,11144222' 
ADCP,ioos:station:wmo:42364:1,2013-12-06T14:30:00Z,29.0600,-88.0900,122.0,9.8,155.0,99.0,'11111222,11111222,11144222' 
ADCP,ioos:station:wmo:42364:1,2013-12-06T15:30:00Z,29.0600,-88.0900,122.0,9.6,163.0,99.0,'11111222,11111222,11144222' 
ADCP,ioos:station:wmo:42364:1,2013-12-06T16:30:00Z,29.0600,-88.0900,122.0,9.6,160.0,99.0,'11111222,11111222,11144222' 
ADCP,ioos:station:wmo:42364:1,2013-12-06T17:30:00Z,29.0600,-88.0900,122.0,9.1,167.0,99.0,'11111222,11111222,11144222' 
ADCP,ioos:station:wmo:42364:1,2013-12-06T18:30:00Z,29.0600,-88.0900,122.0,9.3,161.0,99.0,'11111222,11111222,11144222' 
ADCP,ioos:station:wmo:42364:1,2013-12-06T19:30:00Z,29.0600,-88.0900,122.0,9.1,168.0,99.0,'11111222,11111222,11144222' 
ADCP,ioos:station:wmo:42364:1,2013-12-06T20:30:00Z,29.0600,-88.0900,122.0,8.4,170.0,99.0,'11111222,11111222,11144222' 
ADCP,ioos:station:wmo:42364:1,2013-12-06T22:30:00Z,29.0600,-88.0900,122.0,7.4,170.0,99.0,'11111222,11111222,11144222' 
ADCP,ioos:station:wmo:42364:1,2013-12-06T23:30:00Z,29.0600,-88.0900,122.0,8.4,170.0,99.0,'11111222,11111222,11144222' 
ADCP,ioos:station:wmo:42364:1,2013-12-07T00:30:00Z,29.0600,-88.0900,122.0,8.7,170.0,99.0,'11111222,11111222,11144222' 
ADCP,ioos:station:wmo:42364:1,2013-12-07T01:30:00Z,29.0600,-88.0900,122.0,7.9,170.0,99.0,'11111222,11111222,11144222' 
ADCP,ioos:station:wmo:42364:1,2013-12-07T02:30:00Z,29.0600,-88.0900,122.0,8.0,176.0,99.0,'11111222,11111222,11144222' 
ADCP,ioos:station:wmo:42364:1,2013-12-07T03:30:00Z,29.0600,-88.0900,122.0,7.6,176.0,99.0,'11111222,11111222,11144222' 
ADCP,ioos:station:wmo:42364:1,2013-12-07T04:30:00Z,29.0600,-88.0900,122.0,8.4,174.0,99.0,'11111222,11111222,11144222' 
ADCP,ioos:station:wmo:42364:1,2013-12-07T05:30:00Z,29.0600,-88.0900,122.0,8.3,171.0,99.0,'11111222,11111222,11144222' 
ADCP,ioos:station:wmo:42364:1,2013-12-07T06:30:00Z,29.0600,-88.0900,122.0,7.5,186.0,99.0,'11111222,11111222,11144222' 
ADCP,ioos:station:wmo:42364:1,2013-12-07T07:30:00Z,29.0600,-88.0900,122.0,5.5,269.0,99.0,'11111222,11111222,11144222' 
ADCP,ioos:station:wmo:42364:1,2013-12-07T08:30:00Z,29.0600,-88.0900,122.0,6.3,312.0,99.0,'11111222,11111222,11144222' 
ADCP,ioos:station:wmo:42364:1,2013-12-07T09:30:00Z,29.0600,-88.0900,122.0,6.8,333.0,99.0,'11111222,11111222,11144222' 
ADCP,ioos:station:wmo:42364:1,2013-12-07T10:30:00Z,29.0600,-88.0900,122.0,7.8,331.0,99.0,'11111222,11111222,11144222' 
ADCP,ioos:station:wmo:42364:1,2013-12-07T11:30:00Z,29.0600,-88.0900,122.0,9.1,333.0,99.0,'11111222,11111222,11144222' 
ADCP,ioos:station:wmo:42364:1,2013-12-07T12:30:00Z,29.0600,-88.0900,122.0,9.2,340.0,99.0,'11111222,11111222,11144222' 
ADCP,ioos:station:wmo:42364:1,2013-12-07T13:30:00Z,29.0600,-88.0900,122.0,9.1,350.0,99.0,'11111222,11111222,11144222' 
ADCP,ioos:station:wmo:42364:1,2013-12-07T14:30:00Z,29.0600,-88.0900,122.0,8.3,358.0,99.0,'11111222,11111222,11144222' 
ADCP,ioos:station:wmo:42364:1,2013-12-07T15:30:00Z,29.0600,-88.0900,122.0,7.6,355.0,99.0,'11111222,11111222,11144222' 
ADCP,ioos:station:wmo:42364:1,2013-12-07T16:30:00Z,29.0600,-88.0900,122.0,6.9,1.0,99.0,'11111222,11111222,11144222' 
ADCP,ioos:station:wmo:42364:1,2013-12-07T17:30:00Z,29.0600,-88.0900,122.0,7.2,356.0,99.0,'11111222,11111222,11144222' 
ADCP,ioos:station:wmo:42364:1,2013-12-07T19:30:00Z,29.0600,-88.0900,122.0,7.5,357.0,99.0,'11111222,11111222,11144222' 
ADCP,ioos:station:wmo:42364:1,2013-12-07T20:30:00Z,29.0600,-88.0900,122.0,7.9,354.0,99.0,'11111222,11111222,11144222' 
ADCP,ioos:station:wmo:42364:1,2013-12-07T21:30:00Z,29.0600,-88.0900,122.0,7.6,2.0,99.0,'11111222,11111222,11144222' 
ADCP,ioos:station:wmo:42364:1,2013-12-07T22:30:00Z,29.0600,-88.0900,122.0,7.4,10.0,99.0,'11111222,11111222,11144222' 
ADCP,ioos:station:wmo:42364:1,2013-12-07T23:30:00Z,29.0600,-88.0900,122.0,7.1,13.0,99.0,'11111222,11111222,11144222' 
ADCP,ioos:station:wmo:42364:1,2013-12-08T00:30:00Z,29.0600,-88.0900,122.0,6.9,18.0,99.0,'11111222,11111222,11144222' 
ADCP,ioos:station:wmo:42364:1,2013-12-08T01:30:00Z,29.0600,-88.0900,122.0,7.0,21.0,99.0,'11111222,11111222,11144222' 
ADCP,ioos:station:wmo:42364:1,2013-12-08T02:30:00Z,29.0600,-88.0900,122.0,7.2,15.0,99.0,'11111222,11111222,11144222' 
ADCP,ioos:station:wmo:42364:1,2013-12-08T03:30:00Z,29.0600,-88.0900,122.0,7.2,23.0,99.0,'11111222,11111222,11144222' 
ADCP,ioos:station:wmo:42364:1,2013-12-08T04:30:00Z,29.0600,-88.0900,122.0,6.4,35.0,99.0,'11111222,11111222,11144222' 
ADCP,ioos:station:wmo:42364:1,2013-12-08T05:30:00Z,29.0600,-88.0900,122.0,6.5,33.0,99.0,'11111222,11111222,11144222' 
ADCP,ioos:station:wmo:42364:1,2013-12-08T06:30:00Z,29.0600,-88.0900,122.0,6.1,37.0,99.0,'11111222,11111222,11144222' 
ADCP,ioos:station:wmo:42364:1,2013-12-08T07:30:00Z,29.0600,-88.0900,122.0,5.8,37.0,99.0,'11111222,11111222,11144222' 
ADCP,ioos:station:wmo:42364:1,2013-12-08T08:30:00Z,29.0600,-88.0900,122.0,5.6,30.0,99.0,'11111222,11111222,11144222' 
ADCP,ioos:station:wmo:42364:1,2013-12-08T09:30:00Z,29.0600,-88.0900,122.0,6.0,33.0,99.0,'11111222,11111222,11144222' 
ADCP,ioos:station:wmo:42364:1,2013-12-08T10:30:00Z,29.0600,-88.0900,122.0,6.1,43.0,99.0,'11111222,11111222,11144222' 
ADCP,ioos:station:wmo:42364:1,2013-12-08T11:30:00Z,29.0600,-88.0900,122.0,6.3,61.0,99.0,'11111222,11111222,11144222' 
ADCP,ioos:station:wmo:42364:1,2013-12-08T12:30:00Z,29.0600,-88.0900,122.0,5.7,90.0,99.0,'11111222,11111222,11144222' 
ADCP,ioos:station:wmo:42364:1,2013-12-08T13:30:00Z,29.0600,-88.0900,122.0,9.2,118.0,99.0,'11111222,11111222,11144222' 
ADCP,ioos:station:wmo:42364:1,2013-12-08T14:30:00Z,29.0600,-88.0900,122.0,9.1,133.0,99.0,'11111222,11111222,11144222' 
ADCP,ioos:station:wmo:42364:1,2013-12-08T15:30:00Z,29.0600,-88.0900,122.0,10.3,131.0,99.0,'11111222,11111222,11144222' 
ADCP,ioos:station:wmo:42364:1,2013-12-08T16:30:00Z,29.0600,-88.0900,122.0,9.9,135.0,99.0,'11111222,11111222,11144222' 
ADCP,ioos:station:wmo:42364:1,2013-12-08T17:30:00Z,29.0600,-88.0900,122.0,10.5,141.0,99.0,'11111222,11111222,11144222' 
ADCP,ioos:station:wmo:42364:1,2013-12-08T18:30:00Z,29.0600,-88.0900,122.0,10.9,153.0,99.0,'11111222,11111222,11144222' 
ADCP,ioos:station:wmo:42364:1,2013-12-08T19:30:00Z,29.0600,-88.0900,122.0,12.0,152.0,99.0,'11111222,11111222,11144222' 
ADCP,ioos:station:wmo:42364:1,2013-12-08T20:30:00Z,29.0600,-88.0900,122.0,11.8,161.0,99.0,'11111222,11111222,11144222' 
ADCP,ioos:station:wmo:42364:1,2013-12-08T21:30:00Z,29.0600,-88.0900,122.0,10.9,160.0,99.0,'11111222,11111222,11144222' 
ADCP,ioos:station:wmo:42364:1,2013-12-08T22:30:00Z,29.0600,-88.0900,122.0,9.7,160.0,99.0,'11111222,11111222,11144222' 
ADCP,ioos:station:wmo:42364:1,2013-12-09T00:30:00Z,29.0600,-88.0900,122.0,7.7,160.0,99.0,'11111222,11111222,11144222' 
ADCP,ioos:station:wmo:42364:1,2013-12-09T01:30:00Z,29.0600,-88.0900,122.0,8.5,159.0,99.0,'11111222,11111222,11144222' 
ADCP,ioos:station:wmo:42364:1,2013-12-09T02:30:00Z,29.0600,-88.0900,122.0,9.1,154.0,99.0,'11111222,11111222,11144222' 
ADCP,ioos:station:wmo:42364:1,2013-12-09T03:30:00Z,29.0600,-88.0900,122.0,9.9,150.0,99.0,'11111222,11111222,11144222' 
ADCP,ioos:station:wmo:42364:1,2013-12-09T04:30:00Z,29.0600,-88.0900,122.0,8.7,162.0,99.0,'11111222,11111222,11144222' 
ADCP,ioos:station:wmo:42364:1,2013-12-09T05:30:00Z,29.0600,-88.0900,122.0,6.8,162.0,99.0,'11111222,11111222,11144222' 
ADCP,ioos:station:wmo:42364:1,2013-12-09T06:30:00Z,29.0600,-88.0900,122.0,4.6,171.0,99.0,'11111222,11111222,11144222' 
ADCP,ioos:station:wmo:42364:1,2013-12-09T07:30:00Z,29.0600,-88.0900,122.0,2.8,146.0,99.0,'11111222,11111222,11144222' 
ADCP,ioos:station:wmo:42364:1,2013-12-09T08:30:00Z,29.0600,-88.0900,122.0,6.0,152.0,99.0,'11111222,11111222,11144222' 
ADCP,ioos:station:wmo:42364:1,2013-12-09T09:30:00Z,29.0600,-88.0900,122.0,6.6,157.0,99.0,'11111222,11111222,11144222' 
ADCP,ioos:station:wmo:42364:1,2013-12-09T10:30:00Z,29.0600,-88.0900,122.0,7.0,161.0,99.0,'11111222,11111222,11144222' 
ADCP,ioos:station:wmo:42364:1,2013-12-09T11:30:00Z,29.0600,-88.0900,122.0,6.3,156.0,99.0,'11111222,11111222,11144222' 
ADCP,ioos:station:wmo:42364:1,2013-12-09T12:30:00Z,29.0600,-88.0900,122.0,4.5,171.0,99.0,'11111222,11111222,11144222' 
ADCP,ioos:station:wmo:42364:1,2013-12-09T13:30:00Z,29.0600,-88.0900,122.0,4.2,190.0,99.0,'11111222,11111222,11144222' 
ADCP,ioos:station:wmo:42364:1,2013-12-09T14:30:00Z,29.0600,-88.0900,122.0,4.0,180.0,99.0,'11111222,11111222,11144222' 
ADCP,ioos:station:wmo:42364:1,2013-12-09T15:30:00Z,29.0600,-88.0900,122.0,4.4,174.0,99.0,'11111222,11111222,11144222' 
ADCP,ioos:station:wmo:42364:1,2013-12-09T16:30:00Z,29.0600,-88.0900,122.0,2.5,168.0,99.0,'11111222,11111222,11144222' 
ADCP,ioos:station:wmo:42364:1,2013-12-09T17:30:00Z,29.0600,-88.0900,122.0,4.2,283.0,99.0,'11111222,11111222,11144222' 
ADCP,ioos:station:wmo:42364:1,2013-12-09T18:30:00Z,29.0600,-88.0900,122.0,2.5,307.0,99.0,'11111222,11111222,11144222' 
ADCP,ioos:station:wmo:42364:1,2013-12-09T19:30:00Z,29.0600,-88.0900,122.0,0.0,0.0,99.0,'11111222,11111222,11144222' 
ADCP,ioos:station:wmo:42364:1,2013-12-09T20:30:00Z,29.0600,-88.0900,122.0,0.0,1.0,99.0,'11111222,11111222,11144222' 
ADCP,ioos:station:wmo:42364:1,2013-12-09T21:30:00Z,29.0600,-88.0900,122.0,0.2,3.0,99.0,'11111222,11111222,11144222' 
ADCP,ioos:station:wmo:42364:1,2013-12-09T22:30:00Z,29.0600,-88.0900,122.0,2.0,3.0,99.0,'11111222,11111222,11144222' 
ADCP,ioos:station:wmo:42364:1,2013-12-09T23:30:00Z,29.0600,-88.0900,122.0,3.4,31.0,99.0,'11111222,11111222,11144222' 
ADCP,ioos:station:wmo:42364:1,2013-12-10T00:30:00Z,29.0600,-88.0900,122.0,2.5,95.0,99.0,'11111222,11111222,11144222' 
ADCP,ioos:station:wmo:42364:1,2013-12-10T01:30:00Z,29.0600,-88.0900,122.0,3.8,154.0,99.0,'11111222,11111222,11144222' 
ADCP,ioos:station:wmo:42364:1,2013-12-10T02:30:00Z,29.0600,-88.0900,122.0,4.0,178.0,99.0,'11111222,11111222,11144222' 
ADCP,ioos:station:wmo:42364:1,2013-12-10T03:30:00Z,29.0600,-88.0900,122.0,3.8,185.0,99.0,'11111222,11111222,11144222' 
ADCP,ioos:station:wmo:42364:1,2013-12-10T04:30:00Z,29.0600,-88.0900,122.0,3.7,190.0,99.0,'11111222,11111222,11144222' 